TimeMST,TemperatureF,Dew PointF,Humidity,Sea Level PressureIn,VisibilityMPH,Wind Direction,Wind SpeedMPH,Gust SpeedMPH,PrecipitationIn,Events,Conditions,WindDirDegrees,DateUTC
12:52 AM,-5.1,-9.9,80,30.63,10.0,SW,5.8,-,N/A,,Overcast,220,2013-01-15 07:52:00
1:52 AM,-0.0,-5.1,79,30.62,10.0,Calm,Calm,-,N/A,,Overcast,0,2013-01-15 08:52:00
2:52 AM,-0.9,-6.0,79,30.65,10.0,Calm,Calm,-,N/A,,Overcast,0,2013-01-15 09:52:00
3:52 AM,1.0,-4.0,79,30.65,10.0,Calm,Calm,-,N/A,,Overcast,0,2013-01-15 10:52:00
4:52 AM,1.9,-4.0,76,30.65,10.0,Calm,Calm,-,N/A,,Overcast,0,2013-01-15 11:52:00
5:52 AM,1.9,-2.9,80,30.69,10.0,Calm,Calm,-,N/A,,Overcast,0,2013-01-15 12:52:00
6:52 AM,3.0,-2.9,76,30.73,10.0,North,3.5,-,N/A,,Overcast,350,2013-01-15 13:52:00
7:52 AM,3.9,-2.0,76,30.76,10.0,Calm,Calm,-,N/A,,Overcast,0,2013-01-15 14:52:00
8:52 AM,7.0,1.0,77,30.74,10.0,NE,4.6,-,N/A,,Overcast,50,2013-01-15 15:52:00
9:52 AM,9.0,1.0,70,30.77,10.0,North,9.2,-,N/A,,Overcast,360,2013-01-15 16:52:00
10:52 AM,12.0,1.0,61,30.75,10.0,North,12.7,-,N/A,,Mostly Cloudy,10,2013-01-15 17:52:00
11:52 AM,14.0,1.9,59,30.72,10.0,NNE,12.7,-,N/A,,Clear,30,2013-01-15 18:52:00
12:52 PM,16.0,5.0,62,30.70,10.0,North,12.7,-,N/A,,Overcast,360,2013-01-15 19:52:00
1:52 PM,16.0,5.0,62,30.68,10.0,North,13.8,-,N/A,,Overcast,350,2013-01-15 20:52:00
2:52 PM,17.1,7.0,65,30.70,10.0,North,10.4,-,N/A,,Overcast,10,2013-01-15 21:52:00
3:52 PM,16.0,7.0,68,30.71,10.0,North,11.5,-,N/A,,Overcast,360,2013-01-15 22:52:00
4:52 PM,17.1,8.1,68,30.72,10.0,NNE,9.2,-,N/A,,Overcast,20,2013-01-15 23:52:00
5:52 PM,15.1,7.0,70,30.74,10.0,North,5.8,-,N/A,,Overcast,360,2013-01-16 00:52:00
6:52 PM,10.9,5.0,77,30.77,10.0,NW,5.8,-,N/A,,Overcast,320,2013-01-16 01:52:00
7:52 PM,12.9,6.1,74,30.76,10.0,NNW,6.9,-,N/A,,Overcast,340,2013-01-16 02:52:00
8:52 PM,12.9,6.1,74,30.75,10.0,North,5.8,-,N/A,,Overcast,350,2013-01-16 03:52:00
9:52 PM,12.9,6.1,74,30.75,10.0,North,11.5,-,N/A,,Overcast,350,2013-01-16 04:52:00
10:52 PM,14.0,6.1,71,30.73,10.0,North,8.1,-,N/A,,Overcast,350,2013-01-16 05:52:00
11:52 PM,14.0,7.0,74,30.72,10.0,North,11.5,-,N/A,,Overcast,350,2013-01-16 06:52:00